EHI
4 4 4 4 4 4 5 4 3 3 4 5 4 4 4 3 1 0 0 0 0 0 0 0 0 0 0 0 0 0 0 0 0 0 0 0 0 0
5 4 4 5 5 6 7 7 6 5 4 4 4 4 3 2 0 0 0 0 0 0 0 0 0 0 0 0 0 0 0 0 0 0 0 0 0 0
6 5 5 6 7 8 10 11 10 9 6 5 4 4 3 2 1 1 1 0 0 0 0 0 0 0 0 0 0 0 0 0 0 0 0 0 0 0
9 8 8 8 10 11 12 13 12 11 9 7 4 3 3 3 3 3 3 1 0 0 0 0 0 0 0 0 0 0 0 0 0 0 0 0 0 0
10 10 11 11 11 12 12 13 12 11 11 9 5 2 2 3 4 4 4 4 2 1 0 0 0 0 0 0 0 0 0 0 0 0 0 0 0 0
10 11 11 11 11 11 11 11 11 10 11 10 6 2 2 4 5 6 5 5 4 2 2 1 1 1 0 0 0 0 0 0 0 0 0 0 0 0
12 11 10 10 10 9 9 9 11 11 11 10 6 3 3 5 7 7 5 4 4 3 3 3 3 2 1 1 1 0 0 0 0 0 0 0 0 0
14 12 9 8 8 6 5 5 7 8 8 8 6 3 4 5 6 6 5 4 4 4 4 3 4 4 3 2 1 0 0 0 0 0 0 0 0 0
16 14 11 9 8 8 5 3 3 4 5 7 7 6 5 5 6 6 6 6 6 6 5 4 4 4 4 3 1 0 0 0 0 0 0 0 0 0
14 13 11 11 11 10 8 6 5 4 4 6 8 7 5 5 5 5 6 6 6 6 5 4 4 4 3 2 1 0 0 0 0 0 0 0 0 0
12 11 10 10 10 9 9 9 9 7 5 4 5 5 4 3 4 5 6 6 6 5 4 5 5 4 4 3 1 0 0 0 0 0 0 0 0 0
13 11 8 7 6 5 7 9 9 9 7 5 3 2 2 2 3 5 6 6 5 4 4 5 6 6 5 4 2 1 1 1 0 0 0 0 0 0
13 11 8 5 3 2 4 6 7 7 7 6 5 4 3 3 4 4 4 4 4 3 4 6 7 7 6 4 2 1 1 2 1 1 1 0 0 0
10 10 8 4 1 0 1 2 3 4 5 6 6 5 4 4 4 4 3 3 3 3 4 5 6 7 7 5 3 1 1 2 3 2 2 1 0 0
8 7 6 3 1 0 0 0 1 2 4 5 6 5 4 3 3 3 3 3 3 3 3 4 5 6 6 5 3 1 1 3 3 3 3 1 1 0
6 6 5 3 2 1 2 1 2 2 3 3 4 4 3 2 1 2 3 3 3 3 3 3 4 4 4 4 3 3 3 3 3 3 3 2 1 1
5 6 6 5 4 4 5 4 4 3 2 1 2 3 3 2 1 1 2 3 3 3 3 3 3 3 3 3 3 3 3 3 4 4 3 3 1 0
4 6 6 6 6 6 6 6 5 4 2 1 1 2 3 2 1 0 1 2 2 3 3 3 3 3 3 3 3 3 3 4 5 5 3 2 1 1
3 5 6 6 6 6 6 6 6 4 3 2 2 2 3 2 1 0 0 1 1 1 2 3 3 3 3 3 3 2 3 4 5 4 3 2 2 2
4 5 6 6 6 6 6 6 5 4 3 3 2 2 2 1 0 0 0 0 0 0 1 2 2 3 3 3 2 1 1 3 4 4 4 2 1 1
4 4 5 6 6 6 6 5 4 3 3 3 2 2 1 0 0 0 0 0 0 0 0 1 1 1 3 3 2 1 0 1 2 3 2 1 0 0
3 3 4 5 6 6 6 4 3 3 3 3 1 1 0 0 0 0 0 0 0 0 0 0 0 1 2 3 2 1 0 0 1 1 1 0 0 0
3 3 4 4 5 6 6 4 3 3 3 2 1 0 0 0 0 0 0 0 0 0 0 0 0 0 1 2 1 0 0 0 0 0 0 0 0 0
Wind_Speed
1 2 2 1 1 1 2 3 3 2 1 1 1 2 1 1 2 1 2 5 4 3 3 3 3 4 3 3 3 3 3 3 3 3 3 2 2 3
0 0 1 1 1 1 2 2 2 3 2 0 0 1 1 1 2 2 2 6 4 3 3 3 4 4 4 3 3 3 3 3 3 3 3 3 2 3
1 1 1 1 1 1 1 1 1 1 2 1 0 2 2 1 1 1 2 2 4 4 4 4 4 4 4 4 4 3 3 3 3 3 3 3 2 2
1 1 1 1 1 1 1 1 1 2 2 2 1 1 1 2 2 2 2 2 2 6 5 4 4 4 4 4 4 3 3 3 3 2 2 2 2 2
1 1 1 1 1 0 1 1 1 1 1 2 1 0 1 1 2 2 2 1 2 6 7 6 5 5 5 4 4 4 3 3 3 3 2 2 1 1
2 1 1 1 1 2 1 1 1 1 1 2 2 1 1 1 2 2 2 2 2 2 3 4 6 7 6 5 5 4 4 3 3 3 2 2 1 1
2 2 1 0 1 1 1 1 1 2 2 2 2 1 1 1 2 2 2 2 2 2 2 3 4 4 5 7 6 5 4 4 4 3 3 3 2 2
2 2 2 3 3 3 2 1 2 3 3 2 2 2 2 2 1 2 2 2 2 1 2 2 2 3 3 3 6 7 6 5 4 4 4 4 4 4
2 2 2 1 3 3 4 5 4 3 4 4 3 3 3 2 2 3 2 3 3 1 3 3 3 3 3 3 8 7 6 6 5 5 5 5 5 5
3 3 2 2 2 2 2 2 3 3 4 4 3 3 3 2 3 3 3 3 4 3 3 3 2 3 3 3 9 9 8 7 7 6 6 6 6 7
3 3 3 3 1 1 3 3 3 3 3 3 3 3 3 3 3 3 3 3 3 2 2 3 3 3 3 4 6 10 10 9 8 7 7 7 7 8
3 3 3 3 2 2 4 4 4 3 3 3 4 5 5 5 6 5 4 4 3 2 2 3 3 3 3 3 3 5 6 9 10 9 9 8 7 7
3 2 1 4 3 3 5 4 4 4 4 4 4 4 4 3 4 4 4 4 4 3 2 3 3 3 3 3 3 4 4 4 5 6 9 9 8 7
3 2 0 3 3 3 4 3 3 5 5 4 4 3 3 3 2 3 3 4 4 4 3 4 4 4 4 4 4 3 3 4 4 4 3 6 7 8
2 2 0 3 4 4 6 6 6 5 5 5 4 4 3 2 2 2 3 4 5 5 4 5 5 4 5 5 5 4 4 4 4 4 3 3 4 4
2 2 4 5 5 4 5 6 5 4 4 4 4 3 2 3 3 3 3 3 3 3 3 4 4 5 5 5 4 5 4 4 3 3 3 4 4 4
2 3 3 3 3 4 4 3 3 4 4 4 4 4 3 3 3 3 3 3 3 3 2 3 4 4 4 5 5 4 4 4 3 3 3 4 4 4
4 4 3 3 4 4 4 3 4 3 3 4 4 4 4 3 3 3 3 3 3 3 3 3 2 3 4 3 3 5 4 4 3 3 4 5 5 3
4 4 4 4 4 4 4 4 3 3 3 3 4 4 4 4 4 4 4 4 4 4 3 3 3 4 4 4 3 3 4 3 3 4 5 5 5 3
4 4 4 4 4 4 4 4 3 3 3 4 4 4 4 4 4 4 4 4 4 4 4 4 4 4 5 4 3 1 2 3 3 4 4 4 3 2
4 4 4 4 4 3 3 3 4 4 4 4 4 4 4 4 4 4 4 3 4 4 4 4 2 4 3 2 2 1 0 1 2 3 4 4 4 4
4 4 4 4 4 4 3 3 4 4 4 4 4 4 4 4 5 5 5 4 4 4 5 3 2 3 3 3 3 2 2 1 1 1 1 3 4 4
4 4 4 4 4 4 4 4 5 4 4 4 4 3 4 3 4 4 4 4 4 4 4 3 3 3 3 3 3 2 2 3 2 2 1 2 4 5
Wind_Direction
208 198 237 230 253 260 254 259 258 253 241 168 197 143 152 119 118 148 120 120 127 128 133 142 159 160 157 157 159 164 168 171 172 172 182 194 207 217
200 41 275 231 219 242 259 266 265 266 271 100 152 117 104 114 123 133 119 126 118 134 135 135 145 152 153 151 150 154 162 169 170 174 183 196 209 224
188 169 209 308 283 257 243 246 250 251 236 246 146 120 133 127 124 158 160 161 132 136 143 144 140 136 133 131 132 134 143 152 162 171 184 199 216 234
175 181 215 192 218 278 285 272 260 258 242 229 238 166 158 173 179 199 172 158 147 133 146 152 149 142 137 137 138 139 138 140 144 149 159 178 213 242
198 199 222 225 238 258 285 284 265 231 236 221 229 213 193 191 193 187 170 191 187 152 158 167 165 161 159 158 158 155 155 159 155 150 148 156 189 237
202 212 220 226 237 233 223 249 268 248 219 229 218 204 194 196 216 208 198 197 207 181 165 170 166 173 174 175 175 172 177 181 178 175 174 182 199 226
215 217 209 148 21 306 295 288 268 256 235 225 224 227 212 220 238 241 233 229 202 205 202 193 184 192 186 186 187 185 191 195 195 197 203 210 222 237
230 227 202 186 174 179 192 258 290 271 279 274 258 261 255 252 258 254 256 253 241 189 242 228 211 216 208 200 166 175 190 199 206 212 220 226 232 238
243 247 247 192 202 200 187 195 207 228 247 268 272 276 264 261 262 253 257 278 290 267 253 246 229 234 225 166 160 178 191 201 210 218 227 232 235 240
241 241 241 237 215 237 236 227 226 220 227 233 254 271 281 278 262 265 260 248 249 235 246 257 241 246 236 190 169 183 196 205 211 218 226 233 239 242
247 242 239 233 162 220 237 239 246 241 212 216 236 255 274 259 265 258 248 241 243 237 230 263 261 257 241 212 176 185 198 203 208 216 224 232 239 243
231 231 222 222 184 210 238 242 244 251 257 229 218 222 227 215 214 237 254 251 260 248 208 251 257 260 245 216 204 195 205 202 205 211 219 226 232 249
247 240 209 159 184 214 245 248 254 268 259 250 239 232 229 225 218 221 245 255 260 266 240 250 261 261 266 264 246 228 229 225 214 213 212 214 219 242
273 269 173 143 183 220 236 248 252 253 251 250 251 246 244 244 242 241 239 256 265 265 259 257 262 268 272 271 267 250 244 244 242 243 238 198 213 219
305 11 306 191 208 218 223 235 237 241 243 245 251 251 255 259 256 240 230 227 238 242 233 238 252 255 259 266 270 267 264 255 245 253 254 244 241 228
248 198 199 211 231 246 227 222 232 246 257 256 260 257 249 244 242 246 247 241 240 234 214 228 242 254 259 264 262 264 259 255 252 254 260 260 251 247
282 250 236 226 229 230 229 230 234 231 235 247 252 248 240 241 249 254 257 258 255 255 242 223 225 238 256 264 263 266 266 260 250 247 251 260 259 253
269 259 256 255 254 249 242 236 230 233 239 245 246 244 241 239 247 250 247 254 259 257 253 244 239 236 241 240 263 267 272 274 268 252 256 259 262 259
249 256 256 259 260 257 255 253 248 243 251 252 250 246 243 242 242 247 247 246 254 257 254 247 241 245 253 256 240 248 270 275 273 267 264 265 267 267
251 260 262 261 261 261 261 262 258 250 243 246 247 246 245 247 246 246 248 252 256 259 258 251 250 251 257 272 285 279 248 270 268 272 280 283 288 288
254 258 265 268 267 264 263 264 264 259 255 252 245 242 242 242 247 252 251 243 256 256 258 257 261 255 259 259 255 246 256 210 276 285 291 285 280 267
269 268 271 275 274 273 268 261 256 251 246 243 244 242 240 243 245 249 251 249 248 255 260 255 225 231 234 236 245 247 264 266 165 159 304 303 298 294
270 273 271 269 265 264 265 261 258 257 249 248 247 246 245 245 250 248 246 252 252 257 258 252 240 237 238 241 245 248 253 263 265 249 230 187 205 224